Regional Weather Roundup
Issued by NWS New Orleans/Baton Rouge, LA

Home | Current Version | Previous Version | Graphics & Text | Print | Product List | Glossary On
Versions: 1 2 3 4 5 6 7 8 9 10 11 12 13 14 15 16 17 18 19 20 21 22 23 24 25 26 27 28 29 30 31 32 33 34 35 36 37 38 39 40 41 42 43 44 45 46 47 48 49 50
204
ASUS44 KLIX 160605
RWRLIX
NEW ORLEANS REGIONAL WEATHER ROUNDUP
NATIONAL WEATHER SERVICE NEW ORLEANS LA
100 AM CDT TUE SEP 16 2014

NOTE: "FAIR" INDICATES FEW OR NO CLOUDS BELOW 12,000 FEET WITH NO
      SIGNIFICANT WEATHER AND/OR OBSTRUCTIONS TO VISIBILITY.
      SKY/WX - SKY CONDITION AND SIGNIFICANT WEATHER.
      TMP - AIR TEMPERATURE.     DP    - DEWPOINT TEMPERATURE.
      RH  - RELATIVE HUMIDITY.   PRES  - PRESSURE.
      HI  - HEAT INDEX.          WCI   - WIND CHILL INDEX.

*  THESE STATIONS ARE NOT NWS OR FAA STATIONS AND ARE NOT UNDER
   NWS QUALITY CONTROL.

LAZ038-040-048-061>063-065>067-069-160700-
SOUTHEAST LOUISIANA

CITY           SKY/WX    TMP DP  RH WIND       PRES   REMARKS
N.O. AUDUBON     N/A     78  78 100 MISG        N/A
6HR MIN TEMP:  78; 6HR MAX TEMP:  83;

N.O. INTL ARPT MOCLDY    77  75  93 CALM      30.08F
6HR MIN TEMP:  77; 6HR MAX TEMP:  80;

N.O. LAKEFRONT PTCLDY    81  76  84 W5        30.08F
6HR MIN TEMP:  80; 6HR MAX TEMP:  82;

N.O. DOWNTOWN*   N/A     81  73  78 CALM      30.08F
6HR MIN TEMP:  81; 6HR MAX TEMP:  84;

SLIDELL        PTCLDY    76  73  91 CALM      30.07F
6HR MIN TEMP:  76; 6HR MAX TEMP:  82;

BATON ROUGE    PTCLDY    75  73  93 E3        30.08F
6HR MIN TEMP:  75; 6HR MAX TEMP:  78; 6HR PCP: TRACE;

BOOTHVILLE     CLEAR     82  77  84 SW6       30.07F
6HR MIN TEMP:  80; 6HR MAX TEMP:  83;

BELLE CHASSE   PTCLDY    77  72  84 CALM      30.07F
6HR MIN TEMP:  76; 6HR MAX TEMP:  81;

BOGALUSA*        N/A     76  73  88 CALM      30.10S
6HR MIN TEMP:  76; 6HR MAX TEMP:  86; 6HR PCP:  0.05;

GALLIANO*      NOT AVBL
NEW ROADS*       N/A     75  74  96 CALM      30.08F
6HR MIN TEMP:  75; 6HR MAX TEMP:  82;

GONZALES*        N/A     75  75 100 N3        30.08S FOG
6HR MIN TEMP:  74; 6HR MAX TEMP:  77;

HAMMOND*       MOCLDY    77  73  88 CALM      30.10F
HOUMA*         MOCLDY    76  73  89 CALM      30.08S
6HR MIN TEMP:  75; 6HR MAX TEMP:  79;

PORT FOURCHON* CLEAR     82  75  78 CALM      30.11F

$$

MSZ070-080>082-160700-
SOUTHERN MISSISSIPPI

CITY           SKY/WX    TMP DP  RH WIND       PRES   REMARKS
MCCOMB         PTCLDY    78  74  87 CALM      30.10F
6HR MIN TEMP:  76; 6HR MAX TEMP:  87; 6HR PCP: TRACE;

GULFPORT       PTCLDY    78  76  93 CALM      30.07S
6HR MIN TEMP:  78; 6HR MAX TEMP:  84;

BILOXI         PTCLDY    79  76  90 CALM      30.07F
6HR MIN TEMP:  78; 6HR MAX TEMP:  84;

PASCAGOULA     MOCLDY    75  74  96 CALM      30.07S
6HR MIN TEMP:  75; 6HR MAX TEMP:  81;


$$

COASTAL OBSERVATIONS
LAKE AND NEARSHORE STATIONS

STATION/POSITION TIME  TEMP    WIND        PRES    WAVE
                       AIR SEA DIR/SP/G            HT/PER
                 (UTC) (F)     (DEG/KT/KT) (MB)    (FT/S)
PASCAGOULA       0500   80                 1017.8
WAVELAND YACHT   0500   77     340/  5/  7 1018.1
GRAND ISLE       0500   83 86              1019.4
SOUTHWEST PASS   0500   84 91              1019.1
NEW CANAL        0500   81 82  270/  1/  2 1018.8
SHELL BEACH      0500   80 80  230/  4/  5 1018.3

OFFSHORE STATIONS

STATION/POSITION TIME  TEMP    WIND        PRES    WAVE
                       AIR SEA DIR/SP/G            HT/PER
                 (UTC) (F)     (DEG/KT/KT) (MB)    (FT/S)
64 S DAUPHIN ISL 0452   83 86  260/  8/  8 1018.9    3/ 7

$$




USA.gov is the U.S. government's official web portal to all federal, state and local government web resources and services.